This is the latest recevied weather packets stored in our database for station/object KE8GJZ-2. If no packets are shown the sender has not sent any weather packets the latest 10 day(s).
| Time | Temp. | Humidity | Pressure | Rain* | Wind** | Luminosity | Snow |
|---|---|---|---|---|---|---|---|
| 1778106206 | 12.22° C | 46% | 1012.3 hPa | 0 mm | - | 290 W/m² | - |
| 1778105905 | 12.22° C | 45% | 1012.3 hPa | 0 mm | - | 219 W/m² | - |
| 1778105602 | 12.22° C | 44% | 1012.1 hPa | 0 mm | - | 316 W/m² | - |
| 1778105299 | 12.22° C | 45% | 1012.5 hPa | 0 mm | - | 159 W/m² | - |
| 1778104994 | 12.22° C | 46% | 1012.3 hPa | 0 mm | - | 161 W/m² | - |
| 1778104691 | 12.22° C | 46% | 1012.5 hPa | 0 mm | - | 245 W/m² | - |
| 1778104387 | 12.78° C | 45% | 1012.2 hPa | 0 mm | - | 286 W/m² | - |
| 1778104083 | 12.22° C | 43% | 1012.5 hPa | 0 mm | - | 244 W/m² | - |
| 1778103780 | 12.22° C | 43% | 1012.3 hPa | 0 mm | - | 227 W/m² | - |
| 1778103478 | 12.22° C | 42% | 1012.4 hPa | 0 mm | - | 290 W/m² | - |
| 1778103175 | 12.22° C | 42% | 1012.5 hPa | 0 mm | - | 251 W/m² | - |
| 1778102872 | 12.22° C | 43% | 1012 hPa | 0 mm | - | 213 W/m² | - |
| 1778102568 | 12.22° C | 45% | 1012.3 hPa | 0 mm | - | 424 W/m² | - |
| 1778102263 | 12.22° C | 42% | 1012.2 hPa | 0 mm | - | 370 W/m² | - |
| 1778101960 | 12.78° C | 42% | 1012.4 hPa | 0 mm | - | 425 W/m² | - |
| 1778101657 | 12.22° C | 45% | 1012.3 hPa | 0 mm | - | 405 W/m² | - |
| 1778101354 | 12.22° C | 43% | 1012.6 hPa | 0 mm | - | 513 W/m² | - |
| 1778101051 | 12.78° C | 44% | 1012.4 hPa | 0 mm | - | 434 W/m² | - |
| 1778100746 | 12.22° C | 42% | 1012.6 hPa | 0 mm | - | 330 W/m² | - |
| 1778100444 | 12.22° C | 44% | 1012.6 hPa | 0 mm | - | 369 W/m² | - |
| 1778100141 | 12.22° C | 48% | 1012.7 hPa | 0 mm | - | 362 W/m² | - |
| 1778099839 | 11.67° C | 44% | 1012.6 hPa | 0 mm | - | 320 W/m² | - |
| 1778099536 | 12.22° C | 46% | 1012.4 hPa | 0 mm | - | 262 W/m² | - |
| 1778099234 | 12.22° C | 44% | 1012.7 hPa | 0 mm | - | 271 W/m² | - |
| 1778098929 | 12.22° C | 45% | 1012.7 hPa | 0 mm | - | 324 W/m² | - |
* Rain latest hour (hover to see other rain measurements)
** Current wind speed in m/s (hover to see current wind gust speed)